Miscellaneous Local Product
Issued by NWS Hastings, NE

Home | Current Version | Previous Version | Text Only | Print | Product List | Glossary Off
Versions: 1 2 3 4 5 6 7 8 9 10 11 12 13 14 15 16 17 18 19 20 21 22 23 24 25 26 27 28 29 30 31 32 33 34 35 36 37 38 39 40 41 42 43 44 45 46 47 48 49 50

000
AXUS43 KGID 300002
MISGRI

GID CWA HOURLY WEATHER ROUNDUP
NATIONAL WEATHER SERVICE HASTINGS NE
700 PM CDT FRI APR 29 2016

NOTE: "FAIR" INDICATES FEW OR NO CLOUDS BELOW 12,000 FEET WITH NO
SIGNIFICANT WEATHER AND/OR OBSTRUCTIONS TO VISIBILITY.

...SOUTH CENTRAL NEBRASKA...

CITY           SKY/WX    TMP DP  RH WIND       PRES   REMARKS
GRAND ISLAND   CLOUDY    43  40  89 E18G25    29.92R
HASTINGS       CLOUDY    43  39  86 E18G28    29.88S
KEARNEY        CLOUDY    43  37  81 NE23      29.90S
ORD            CLOUDY    43  39  86 E15       29.94R
YORK           CLOUDY    45  41  87 E24       29.91F
AURORA         CLOUDY    43  41  93 E22G28    29.91S
LEXINGTON      CLOUDY    42  38  87 NE21G30   29.88F
HOLDREGE       CLOUDY    43  39  88 NE22      29.87S
HEBRON         CLOUDY    47  43  85 E23G29    29.86S

...NEBRASKA PANHANDLE...

CITY           SKY/WX    TMP DP  RH WIND       PRES   REMARKS
CHADRON        CLOUDY    42  35  76 NE13      29.98F
ALLIANCE       LGT RAIN  37  35  92 NE9       29.95R FOG     WCI  30
SCOTTSBLUFF    LGT RAIN  37  34  89 E6        29.96S WCI  32
SIDNEY         HVY SNOW  33  32  96 N5        29.93S VSB 1/4 WCI  29

...WESTERN AND NORTH CENTRAL NEBRASKA...

CITY           SKY/WX    TMP DP  RH WIND       PRES   REMARKS
VALENTINE      CLOUDY    41  36  82 NE12      30.00R
AINSWORTH      CLOUDY    41  38  89 E10       29.99S
ONEILL         CLOUDY    42  40  93 NE17      29.98F FOG
BROKEN BOW     CLOUDY    41  39  93 E16G23    29.94S
IMPERIAL       LGT RAIN  35  34  96 N14       29.92R FOG     WCI  26
NORTH PLATTE   LGT RAIN  41  37  86 NE18G24   29.90F
MCCOOK         CLOUDY    42  39  89 NE16G31   29.84S

...EASTERN NEBRASKA...

CITY           SKY/WX    TMP DP  RH WIND       PRES   REMARKS
NORFOLK        CLOUDY    44  39  82 NE15G21   29.96F
SO SIOUX CITY  CLOUDY    48  40  73 E13       30.01F
TEKAMAH        CLOUDY    48  43  82 NE12      29.99F
COLUMBUS       CLOUDY    45  36  70 E18       29.96F
ALBION         CLOUDY    44  39  82 E15G22    29.95F
OMAHA EPPLEY   CLOUDY    49  43  80 E9        29.96F
MILLARD        CLOUDY    49  43  81 E8        29.96F
LINCOLN        CLOUDY    48  43  82 NE21      29.94F
NEBRASKA CITY  CLOUDY    49  47  90 E15G22    29.90F
BEATRICE       CLOUDY    49  45  84 NE18G26   29.88S
FALLS CITY     CLOUDY    51  48  89 E18G26    29.88F

...NORTHERN KANSAS...

CITY           SKY/WX    TMP DP  RH WIND       PRES   REMARKS
GOODLAND       SNOW      32  32 100 N9        29.87S VSB 1/2 WCI  24
HILL CITY      LGT RAIN  45  42  89 NE22      29.78F
NORTON         CLOUDY    43  37  81 NE26G33   29.79S
PHILLIPSBURG   CLOUDY    46  43  87 NE18G29   29.80F
SMITH CENTER   CLOUDY    45  41  87 NE23G32   29.80F
BELOIT         CLOUDY    46  43  87 NE17G30   29.79R
HAYS           CLOUDY    46  37  71 E15       29.75S
RUSSELL        LGT RAIN  47  45  93 E20G32    29.74R
CONCORDIA      LGT RAIN  48  45  89 E16G30    29.79F
SALINA         RAIN      50  48  93 NE13G26   29.76F FOG
TOPEKA         CLOUDY    53  50  89 NE14G25   29.82F



USA.gov is the U.S. government's official web portal to all federal, state and local government web resources and services.